Location: Newark
(25.0000°N, 73.5000°E)
Time: 01:12:00
(UTC+00:00)

Tiros 1 despin weight - Pass Details

Date: 10 March 2021
Orbit: 593 x 641 km, 48.2° (Epoch: 15 April)

Event Time Altitude Azimuth Distance (km) Brightness Sun altitude
Rises 23:16:25 0° 309° (NW) 2,923 - -28.6°
Reaches altitude 10° 23:18:46 10° 306° (NW) 2,018 - -28.1°
Maximum altitude 23:23:20 58° 227° (SW) 743 - -27.0°
Exits shadow 23:25:32 29° 160° (SSE) 1,168 ? -26.6°
Drops below altitude 10° 23:27:55 10° 149° (SSE) 2,020 ? -26.0°
Sets 23:30:16 0° 145° (SE) 2,926 ? -25.5°
